TRA34Z EHAM-LIRP

Flight info

Callsign TRA34Z
Flight time 1h 32m
Altitude 37000
Route EDUPO Z739 MISGO DCT ASBON DCT TUSUK DCT ULNOK L607 ABUKA/N0464F380 DCT KRH DCT NATOR/N0462F370 DCT TRA DCT RIPUS DCT GERSA DCT SOSON DCT ODINA DCT SRN DCT ROBAS DCT OSBUL DCT EKPAL DCT MIVKI
Aircraft B738/M-SDE2E3FGHIRWXY/LB1

Departure

Time 2026-05-08 19:33
Airport Amsterdam Airport Schiphol (EHAM)

Arrival

Time 2026-05-08 21:05
Airport Pisa International Airport (LIRP)
Time Latitude Longitude Altitude Speed Heading
2026-05-08 19:03 52.30899 4.77238 -2 ft 0 kts
2026-05-08 19:15 52.30896 4.77238 -2 ft 3 kts
2026-05-08 19:15 52.30876 4.77238 -2 ft 3 kts 353°
2026-05-08 19:16 52.30857 4.77242 -2 ft 3 kts 14°
2026-05-08 19:16 52.30847 4.77231 -2 ft 3 kts 59°
2026-05-08 19:16 52.30841 4.77204 -2 ft 1 kts 74°
2026-05-08 19:20 52.30841 4.77205 -2 ft 1 kts 77°
2026-05-08 19:20 52.30842 4.77251 -2 ft 8 kts 90°
2026-05-08 19:20 52.30838 4.77356 -2 ft 9 kts 92°
2026-05-08 19:21 52.30848 4.77455 -2 ft 10 kts 40°
2026-05-08 19:21 52.30914 4.77476 -2 ft 9 kts
2026-05-08 19:21 52.30977 4.77484 -2 ft 10 kts
2026-05-08 19:21 52.31019 4.77555 -2 ft 10 kts 97°
2026-05-08 19:22 52.30962 4.77611 -2 ft 12 kts 174°
2026-05-08 19:22 52.30868 4.77607 -2 ft 15 kts 182°
2026-05-08 19:22 52.30762 4.77598 -2 ft 16 kts 183°
2026-05-08 19:22 52.30668 4.77581 -2 ft 12 kts 206°
2026-05-08 19:23 52.30640 4.77456 -2 ft 13 kts 263°
2026-05-08 19:23 52.30602 4.77321 -2 ft 14 kts 238°
2026-05-08 19:23 52.30543 4.77167 -2 ft 17 kts 238°
2026-05-08 19:23 52.30478 4.76997 -2 ft 18 kts 238°
2026-05-08 19:24 52.30411 4.76821 -2 ft 18 kts 238°
2026-05-08 19:24 52.30344 4.76652 -2 ft 18 kts 237°
2026-05-08 19:24 52.30280 4.76486 -2 ft 17 kts 238°
2026-05-08 19:24 52.30220 4.76325 -2 ft 16 kts 238°
2026-05-08 19:25 52.30159 4.76169 -2 ft 17 kts 236°
2026-05-08 19:25 52.30099 4.76011 -2 ft 16 kts 238°
2026-05-08 19:25 52.30042 4.75862 -2 ft 15 kts 238°
2026-05-08 19:25 52.29983 4.75708 -2 ft 16 kts 237°
2026-05-08 19:26 52.29923 4.75554 -2 ft 16 kts 237°
2026-05-08 19:26 52.29861 4.75393 -2 ft 17 kts 238°
2026-05-08 19:26 52.29833 4.75236 -2 ft 11 kts 280°
2026-05-08 19:26 52.29877 4.75130 -2 ft 13 kts 311°
2026-05-08 19:27 52.29940 4.75013 -2 ft 15 kts 311°
2026-05-08 19:27 52.30012 4.74879 -2 ft 16 kts 311°
2026-05-08 19:27 52.30083 4.74748 1 ft 15 kts 311°
2026-05-08 19:27 52.30152 4.74622 9 ft 15 kts 311°
2026-05-08 19:28 52.30220 4.74495 9 ft 15 kts 311°
2026-05-08 19:28 52.30294 4.74357 7 ft 17 kts 310°
2026-05-08 19:28 52.30362 4.74231 -2 ft 14 kts 319°
2026-05-08 19:28 52.30455 4.74198 -2 ft 14 kts
2026-05-08 19:29 52.30554 4.74198 -2 ft 12 kts 345°
2026-05-08 19:29 52.30592 4.74118 -2 ft 10 kts 278°
2026-05-08 19:29 52.30596 4.74002 -2 ft 10 kts 276°
2026-05-08 19:29 52.30602 4.73956 -2 ft 0 kts 291°
2026-05-08 19:31 52.30602 4.73955 -2 ft 1 kts 291°
2026-05-08 19:31 52.30623 4.73917 -2 ft 9 kts 326°
2026-05-08 19:32 52.30691 4.73860 -3 ft 12 kts 333°
2026-05-08 19:32 52.30749 4.73793 -2 ft 8 kts 327°
2026-05-08 19:32 52.30810 4.73792 -1 ft 13 kts
2026-05-08 19:32 52.31113 4.73820 -2 ft 76 kts
2026-05-08 19:33 52.31847 4.73889 -2 ft 132 kts
2026-05-08 19:33 52.32879 4.73985 165 ft 158 kts
2026-05-08 19:33 52.33948 4.74146 886 ft 150 kts 17°
2026-05-08 19:33 52.34933 4.74819 1389 ft 156 kts 28°
2026-05-08 19:34 52.35926 4.75586 1925 ft 163 kts 27°
2026-05-08 19:34 52.37004 4.76420 2341 ft 179 kts 28°
2026-05-08 19:34 52.38189 4.77393 2591 ft 203 kts 36°
2026-05-08 19:34 52.39217 4.79101 2776 ft 221 kts 50°
2026-05-08 19:35 52.40290 4.81010 3083 ft 232 kts 47°
2026-05-08 19:35 52.41416 4.82940 3568 ft 236 kts 47°
2026-05-08 19:35 52.42277 4.85235 3969 ft 241 kts 77°
2026-05-08 19:35 52.42426 4.88060 4308 ft 255 kts 90°
2026-05-08 19:36 52.42418 4.90997 4842 ft 264 kts 90°
2026-05-08 19:36 52.42415 4.94034 5499 ft 269 kts 90°
2026-05-08 19:36 52.42335 4.97114 5980 ft 273 kts 101°
2026-05-08 19:36 52.41483 4.99846 6012 ft 273 kts 134°
2026-05-08 19:37 52.40008 5.01807 6009 ft 273 kts 146°
2026-05-08 19:37 52.38442 5.03561 6016 ft 273 kts 147°
2026-05-08 19:37 52.36861 5.05344 6373 ft 279 kts 146°
2026-05-08 19:37 52.35270 5.07158 7175 ft 278 kts 146°
2026-05-08 19:38 52.33686 5.08984 7922 ft 280 kts 144°
2026-05-08 19:38 52.32242 5.11148 8664 ft 283 kts 133°
2026-05-08 19:38 52.30944 5.13584 9445 ft 286 kts 130°
2026-05-08 19:38 52.29649 5.16066 10236 ft 288 kts 131°
2026-05-08 19:39 52.28298 5.18602 10603 ft 307 kts 131°
2026-05-08 19:39 52.26829 5.21301 10772 ft 329 kts 132°
2026-05-08 19:39 52.25247 5.24179 10948 ft 351 kts 132°
2026-05-08 19:39 52.23609 5.27263 11220 ft 367 kts 128°
2026-05-08 19:40 52.22084 5.30661 11780 ft 374 kts 126°
2026-05-08 19:40 52.20607 5.34161 12454 ft 377 kts 125°
2026-05-08 19:40 52.19120 5.37709 13162 ft 380 kts 125°
2026-05-08 19:40 52.17609 5.41275 13870 ft 384 kts 126°
2026-05-08 19:41 52.16069 5.44862 14530 ft 388 kts 126°
2026-05-08 19:41 52.14512 5.48455 15203 ft 390 kts 126°
2026-05-08 19:41 52.12932 5.52080 15930 ft 393 kts 126°
2026-05-08 19:41 52.11342 5.55715 16599 ft 396 kts 126°
2026-05-08 19:42 52.09736 5.59383 17250 ft 400 kts 126°
2026-05-08 19:42 52.08118 5.63071 17914 ft 403 kts 126°
2026-05-08 19:42 52.06482 5.66792 18539 ft 407 kts 126°
2026-05-08 19:42 52.04741 5.70440 19076 ft 410 kts 131°
2026-05-08 19:43 52.02852 5.73934 19589 ft 414 kts 133°
2026-05-08 19:43 52.00919 5.77437 20065 ft 419 kts 132°
2026-05-08 19:43 51.98980 5.81007 20551 ft 424 kts 131°
2026-05-08 19:43 51.97035 5.84635 21058 ft 427 kts 131°
2026-05-08 19:44 51.95082 5.88284 21565 ft 431 kts 131°
2026-05-08 19:44 51.93104 5.91969 22031 ft 435 kts 131°
2026-05-08 19:44 51.91105 5.95687 22518 ft 439 kts 131°
2026-05-08 19:44 51.89091 5.99429 22982 ft 442 kts 131°
2026-05-08 19:45 51.87059 6.03195 23474 ft 445 kts 131°
2026-05-08 19:45 51.85014 6.06978 23895 ft 449 kts 131°
2026-05-08 19:45 51.82915 6.10732 24248 ft 452 kts 135°
2026-05-08 19:45 51.80528 6.14056 24628 ft 454 kts 142°
2026-05-08 19:46 51.78024 6.17183 25013 ft 457 kts 143°
2026-05-08 19:46 51.75482 6.20291 25367 ft 460 kts 143°
2026-05-08 19:46 51.70355 6.26574 26059 ft 466 kts 142°
2026-05-08 19:47 51.67783 6.29762 26405 ft 468 kts 142°
2026-05-08 19:47 51.65205 6.32977 26790 ft 469 kts 142°
2026-05-08 19:47 51.62624 6.36206 27157 ft 471 kts 142°
2026-05-08 19:47 51.60035 6.39448 27510 ft 473 kts 142°
2026-05-08 19:48 51.57427 6.42712 27817 ft 475 kts 142°
2026-05-08 19:48 51.54815 6.45978 28107 ft 478 kts 142°
2026-05-08 19:48 51.53069 6.48157 28296 ft 480 kts 142°
2026-05-08 19:48 51.50431 6.51444 28664 ft 480 kts 142°
2026-05-08 19:49 51.47758 6.54769 29157 ft 478 kts 142°
2026-05-08 19:49 51.45131 6.58031 29650 ft 477 kts 141°
2026-05-08 19:49 51.42548 6.61233 30070 ft 476 kts 141°
2026-05-08 19:49 51.39928 6.64476 30416 ft 476 kts 141°
2026-05-08 19:50 51.37304 6.67720 30732 ft 477 kts 142°
2026-05-08 19:50 51.34679 6.70959 31095 ft 476 kts 142°
2026-05-08 19:50 51.32068 6.74178 31574 ft 472 kts 142°
2026-05-08 19:50 51.29469 6.77375 32000 ft 470 kts 142°
2026-05-08 19:51 51.26875 6.80563 32276 ft 471 kts 142°
2026-05-08 19:51 51.24272 6.83757 32517 ft 473 kts 142°
2026-05-08 19:51 51.21658 6.86960 32838 ft 473 kts 143°
2026-05-08 19:51 51.19052 6.90147 33205 ft 472 kts 143°
2026-05-08 19:52 51.16451 6.93325 33527 ft 472 kts 143°
2026-05-08 19:52 51.13842 6.96508 33819 ft 472 kts 143°
2026-05-08 19:52 51.11232 6.99687 34105 ft 472 kts 143°
2026-05-08 19:52 51.08626 7.02857 34411 ft 471 kts 143°
2026-05-08 19:53 51.05986 7.06064 34679 ft 471 kts 143°
2026-05-08 19:53 51.03415 7.09182 34893 ft 472 kts 143°
2026-05-08 19:53 51.00769 7.12385 35151 ft 472 kts 143°
2026-05-08 19:53 50.98158 7.15542 35460 ft 470 kts 143°
2026-05-08 19:54 50.95561 7.18679 35715 ft 470 kts 143°
2026-05-08 19:54 50.92953 7.21823 35907 ft 471 kts 144°
2026-05-08 19:54 50.90342 7.24966 36104 ft 472 kts 144°
2026-05-08 19:54 50.87758 7.28073 36330 ft 472 kts 144°
2026-05-08 19:55 50.85112 7.31250 36572 ft 472 kts 144°
2026-05-08 19:55 50.82459 7.34430 36800 ft 472 kts 144°
2026-05-08 19:55 50.79911 7.37480 36991 ft 472 kts 144°
2026-05-08 19:55 50.77286 7.40618 37139 ft 474 kts 144°
2026-05-08 19:56 50.72009 7.46912 37128 ft 475 kts 144°
2026-05-08 19:56 50.66702 7.53039 37110 ft 470 kts 151°
2026-05-08 19:57 50.60794 7.57216 37115 ft 464 kts 160°
2026-05-08 19:57 50.54803 7.60960 37127 ft 462 kts 160°
2026-05-08 19:58 50.48837 7.64743 37128 ft 462 kts 159°
2026-05-08 19:58 50.42891 7.68568 37137 ft 463 kts 159°
2026-05-08 19:59 50.36913 7.72425 37122 ft 465 kts 159°
2026-05-08 19:59 50.30921 7.76284 37132 ft 467 kts 159°
2026-05-08 20:00 50.24899 7.80149 37128 ft 469 kts 159°
2026-05-08 20:00 50.18852 7.84018 37128 ft 470 kts 160°
2026-05-08 20:01 50.12793 7.87884 37111 ft 471 kts 160°
2026-05-08 20:01 50.06733 7.91740 37110 ft 471 kts 160°
2026-05-08 20:02 50.00677 7.95582 37107 ft 470 kts 160°
2026-05-08 20:02 49.94642 7.99402 37104 ft 470 kts 160°
2026-05-08 20:03 49.88593 8.03219 37105 ft 469 kts 160°
2026-05-08 20:03 49.82547 8.07024 37105 ft 469 kts 160°
2026-05-08 20:04 49.76506 8.10815 37106 ft 468 kts 160°
2026-05-08 20:04 49.70468 8.14595 37102 ft 468 kts 160°
2026-05-08 20:05 49.64432 8.18364 37089 ft 467 kts 160°
2026-05-08 20:05 49.58454 8.22086 37092 ft 466 kts 160°
2026-05-08 20:06 49.52417 8.25752 37087 ft 465 kts 165°
2026-05-08 20:06 49.49275 8.26830 37086 ft 462 kts 176°
2026-05-08 20:06 49.46037 8.27195 37099 ft 460 kts 179°
2026-05-08 20:07 49.39674 8.27698 37081 ft 461 kts 179°
2026-05-08 20:07 49.33260 8.28237 37082 ft 462 kts 179°
2026-05-08 20:08 49.26835 8.28837 37079 ft 463 kts 179°
2026-05-08 20:08 49.20404 8.29462 37066 ft 463 kts 179°
2026-05-08 20:09 49.13975 8.30088 37075 ft 463 kts 179°
2026-05-08 20:09 49.07549 8.30710 37072 ft 463 kts 179°
2026-05-08 20:10 49.01122 8.31329 37073 ft 463 kts 179°
2026-05-08 20:10 48.94702 8.31945 37069 ft 462 kts 179°
2026-05-08 20:11 48.88278 8.32560 37074 ft 462 kts 179°
2026-05-08 20:11 48.81856 8.33173 37074 ft 463 kts 179°
2026-05-08 20:12 48.75430 8.33785 37058 ft 463 kts 180°
2026-05-08 20:12 48.69005 8.34395 37076 ft 462 kts 180°
2026-05-08 20:13 48.62586 8.35003 37070 ft 462 kts 180°
2026-05-08 20:13 48.56175 8.35610 37075 ft 462 kts 180°
2026-05-08 20:14 48.49765 8.36214 37069 ft 462 kts 180°
2026-05-08 20:14 48.43334 8.36819 37069 ft 463 kts 180°
2026-05-08 20:15 48.36893 8.37423 37075 ft 464 kts 180°
2026-05-08 20:15 48.30445 8.38027 37064 ft 465 kts 180°
2026-05-08 20:16 48.23988 8.38629 37071 ft 465 kts 180°
2026-05-08 20:16 48.17517 8.39231 37072 ft 466 kts 180°
2026-05-08 20:17 48.11044 8.39832 37055 ft 466 kts 181°
2026-05-08 20:17 48.04569 8.40432 37060 ft 466 kts 181°
2026-05-08 20:18 47.98107 8.41030 37068 ft 465 kts 181°
2026-05-08 20:18 47.91644 8.41625 37064 ft 465 kts 181°
2026-05-08 20:19 47.85236 8.42214 37054 ft 465 kts 181°
2026-05-08 20:19 47.78733 8.42810 37063 ft 465 kts 181°
2026-05-08 20:20 47.72313 8.43397 37060 ft 466 kts 181°
2026-05-08 20:20 47.65843 8.44059 37055 ft 466 kts 179°
2026-05-08 20:21 47.59375 8.45042 37069 ft 467 kts 178°
2026-05-08 20:21 47.52922 8.46054 37081 ft 468 kts 179°
2026-05-08 20:22 47.46458 8.47020 37063 ft 467 kts 179°
2026-05-08 20:22 47.41045 8.47810 37070 ft 466 kts 179°
2026-05-08 20:23 47.33549 8.48902 37075 ft 465 kts 179°
2026-05-08 20:23 47.27106 8.49839 37057 ft 465 kts 179°
2026-05-08 20:24 47.20663 8.50775 37067 ft 465 kts 179°
2026-05-08 20:24 47.14226 8.51708 37064 ft 465 kts 179°
2026-05-08 20:25 47.07786 8.52639 37059 ft 465 kts 179°
2026-05-08 20:25 47.01343 8.53569 37062 ft 465 kts 179°
2026-05-08 20:26 46.94892 8.54500 37075 ft 466 kts 179°
2026-05-08 20:26 46.88435 8.55430 37108 ft 467 kts 179°
2026-05-08 20:27 46.81962 8.56361 37081 ft 465 kts 179°
2026-05-08 20:27 46.75523 8.57284 37100 ft 464 kts 179°
2026-05-08 20:28 46.69093 8.58203 37080 ft 464 kts 179°
2026-05-08 20:28 46.62672 8.59118 37091 ft 462 kts 179°
2026-05-08 20:29 46.56270 8.60031 37090 ft 463 kts 179°
2026-05-08 20:29 46.49862 8.60942 37102 ft 462 kts 179°
2026-05-08 20:30 46.43482 8.61847 37094 ft 459 kts 179°
2026-05-08 20:30 46.37130 8.62744 37093 ft 459 kts 179°
2026-05-08 20:31 46.30767 8.63640 37102 ft 460 kts 179°
2026-05-08 20:31 46.24395 8.64536 37103 ft 459 kts 179°
2026-05-08 20:32 46.19106 8.65281 37091 ft 460 kts 179°
2026-05-08 20:32 46.12731 8.66252 37096 ft 465 kts 174°
2026-05-08 20:33 46.06551 8.69284 37093 ft 476 kts 155°
2026-05-08 20:33 46.00750 8.73922 37092 ft 478 kts 154°
2026-05-08 20:34 45.94949 8.78589 37102 ft 478 kts 155°
2026-05-08 20:35 45.86197 8.85453 37103 ft 477 kts 155°
2026-05-08 20:35 45.80360 8.89988 37077 ft 477 kts 155°
2026-05-08 20:36 45.74532 8.94512 37078 ft 476 kts 155°
2026-05-08 20:36 45.68711 8.99022 37070 ft 476 kts 155°
2026-05-08 20:37 45.63195 9.04297 37076 ft 482 kts 140°
2026-05-08 20:37 45.58618 9.11350 37064 ft 485 kts 134°
2026-05-08 20:38 45.54149 9.18551 37070 ft 484 kts 135°
2026-05-08 20:38 45.49644 9.25687 37076 ft 484 kts 135°
2026-05-08 20:39 45.45113 9.32772 37074 ft 483 kts 135°
2026-05-08 20:39 45.40577 9.39832 37068 ft 483 kts 136°
2026-05-08 20:40 45.36034 9.46888 37058 ft 483 kts 136°
2026-05-08 20:40 45.31491 9.53933 37060 ft 483 kts 136°
2026-05-08 20:41 45.26945 9.60964 37049 ft 484 kts 136°
2026-05-08 20:41 45.22417 9.67953 37038 ft 484 kts 136°
2026-05-08 20:42 45.17856 9.74972 37038 ft 484 kts 136°
2026-05-08 20:42 45.13296 9.81973 37031 ft 483 kts 136°
2026-05-08 20:43 45.08731 9.88969 37042 ft 483 kts 136°
2026-05-08 20:43 45.04166 9.95950 37031 ft 483 kts 136°
2026-05-08 20:43 45.01873 9.99450 36547 ft 487 kts 136°
2026-05-08 20:44 44.99579 10.02947 36063 ft 482 kts 136°
2026-05-08 20:44 44.97297 10.06423 35372 ft 484 kts 136°
2026-05-08 20:44 44.94992 10.09925 34671 ft 487 kts 137°
2026-05-08 20:44 44.92688 10.13425 34167 ft 485 kts 137°
2026-05-08 20:45 44.90388 10.16916 33400 ft 487 kts 137°
2026-05-08 20:45 44.88074 10.20420 32502 ft 491 kts 136°
2026-05-08 20:45 44.85606 10.23771 31618 ft 490 kts 148°
2026-05-08 20:45 44.82650 10.25976 31031 ft 478 kts 166°
2026-05-08 20:46 44.79414 10.26992 30435 ft 477 kts 179°
2026-05-08 20:46 44.76109 10.26979 29713 ft 473 kts 193°
2026-05-08 20:46 44.72933 10.25951 28974 ft 468 kts 200°
2026-05-08 20:46 44.69759 10.24890 28232 ft 472 kts 192°
2026-05-08 20:47 44.66470 10.24607 27574 ft 476 kts 182°
2026-05-08 20:47 44.63145 10.25040 26971 ft 483 kts 174°
2026-05-08 20:47 44.59818 10.25825 26378 ft 486 kts 174°
2026-05-08 20:47 44.56483 10.26602 25797 ft 487 kts 174°
2026-05-08 20:48 44.53146 10.27357 25240 ft 483 kts 174°
2026-05-08 20:48 44.49861 10.28082 24851 ft 474 kts 174°
2026-05-08 20:48 44.46651 10.28775 24467 ft 472 kts 174°
2026-05-08 20:48 44.43367 10.29475 24071 ft 470 kts 173°
2026-05-08 20:49 44.40144 10.30159 23672 ft 468 kts 173°
2026-05-08 20:49 44.37005 10.30827 23201 ft 456 kts 173°
2026-05-08 20:49 44.33861 10.31497 22739 ft 445 kts 173°
2026-05-08 20:49 44.30875 10.32132 22287 ft 435 kts 173°
2026-05-08 20:50 44.27918 10.32760 21841 ft 426 kts 173°
2026-05-08 20:50 44.25014 10.33376 21392 ft 418 kts 173°
2026-05-08 20:50 44.22159 10.33981 20900 ft 412 kts 173°
2026-05-08 20:50 44.19365 10.34573 20387 ft 399 kts 173°
2026-05-08 20:51 44.16664 10.35143 19895 ft 386 kts 173°
2026-05-08 20:51 44.14029 10.35520 19402 ft 375 kts 178°
2026-05-08 20:51 44.11467 10.35708 18928 ft 365 kts 179°
2026-05-08 20:51 44.08955 10.35849 18451 ft 358 kts 179°
2026-05-08 20:52 44.06481 10.35995 17910 ft 353 kts 179°
2026-05-08 20:52 44.04044 10.36157 17382 ft 349 kts 178°
2026-05-08 20:52 44.01631 10.36331 16864 ft 347 kts 178°
2026-05-08 20:52 43.99210 10.36514 16358 ft 350 kts 178°
2026-05-08 20:53 43.96776 10.36702 15846 ft 349 kts 178°
2026-05-08 20:53 43.94366 10.36889 15339 ft 345 kts 178°
2026-05-08 20:53 43.91977 10.37076 14858 ft 342 kts 177°
2026-05-08 20:53 43.89615 10.37289 14361 ft 339 kts 175°
2026-05-08 20:54 43.87278 10.37567 13868 ft 335 kts 183°
2026-05-08 20:54 43.85017 10.36885 13350 ft 332 kts 200°
2026-05-08 20:54 43.82876 10.35716 12829 ft 330 kts 203°
2026-05-08 20:54 43.80769 10.34484 12311 ft 328 kts 203°
2026-05-08 20:55 43.78675 10.33246 11787 ft 326 kts 204°
2026-05-08 20:55 43.76592 10.32015 11168 ft 324 kts 204°
2026-05-08 20:55 43.74533 10.30803 10559 ft 320 kts 204°
2026-05-08 20:55 43.72498 10.29606 9981 ft 316 kts 204°
2026-05-08 20:56 43.70480 10.28418 9360 ft 313 kts 203°
2026-05-08 20:56 43.68486 10.27241 8736 ft 310 kts 204°
2026-05-08 20:56 43.66512 10.26076 8124 ft 307 kts 204°
2026-05-08 20:56 43.64564 10.24925 7637 ft 301 kts 204°
2026-05-08 20:57 43.62661 10.23800 7193 ft 295 kts 203°
2026-05-08 20:57 43.60826 10.22605 6732 ft 288 kts 212°
2026-05-08 20:57 43.59200 10.21038 6309 ft 283 kts 217°
2026-05-08 20:57 43.57642 10.19417 5867 ft 278 kts 217°
2026-05-08 20:58 43.56141 10.17832 5439 ft 266 kts 217°
2026-05-08 20:58 43.54709 10.16302 5007 ft 255 kts 217°
2026-05-08 20:58 43.53339 10.14830 4527 ft 245 kts 217°
2026-05-08 20:58 43.52010 10.13401 4020 ft 239 kts 218°
2026-05-08 20:59 43.50611 10.12239 3559 ft 234 kts 193°
2026-05-08 20:59 43.49042 10.12436 3360 ft 229 kts 152°
2026-05-08 20:59 43.47949 10.13956 3133 ft 227 kts 112°
2026-05-08 20:59 43.47832 10.16076 2912 ft 227 kts 72°
2026-05-08 21:00 43.48667 10.17871 2859 ft 224 kts 48°
2026-05-08 21:00 43.49712 10.19454 2781 ft 226 kts 45°
2026-05-08 21:00 43.50825 10.20967 2712 ft 223 kts 44°
2026-05-08 21:00 43.51961 10.22356 2610 ft 214 kts 40°
2026-05-08 21:01 43.53108 10.23599 2523 ft 207 kts 38°
2026-05-08 21:01 43.54234 10.24772 2426 ft 199 kts 38°
2026-05-08 21:01 43.55324 10.25900 2351 ft 193 kts 38°
2026-05-08 21:01 43.56393 10.27007 2288 ft 193 kts 38°
2026-05-08 21:02 43.57448 10.28101 2188 ft 183 kts 38°
2026-05-08 21:02 43.58427 10.29115 2077 ft 171 kts 38°
2026-05-08 21:02 43.59361 10.30083 1960 ft 167 kts 38°
2026-05-08 21:02 43.60291 10.31047 1760 ft 169 kts 38°
2026-05-08 21:03 43.61207 10.31996 1537 ft 159 kts 38°
2026-05-08 21:03 43.62052 10.32872 1335 ft 147 kts 38°
2026-05-08 21:03 43.62855 10.33703 1150 ft 143 kts 38°
2026-05-08 21:03 43.63656 10.34533 968 ft 145 kts 38°
2026-05-08 21:04 43.64461 10.35367 777 ft 144 kts 37°
2026-05-08 21:04 43.65257 10.36196 586 ft 141 kts 37°
2026-05-08 21:04 43.66035 10.36991 375 ft 139 kts 37°
2026-05-08 21:04 43.66813 10.37800 211 ft 142 kts 37°
2026-05-08 21:05 43.67613 10.38628 30 ft 144 kts 37°
2026-05-08 21:05 43.68348 10.39390 10 ft 113 kts 35°
2026-05-08 21:05 43.68833 10.39892 6 ft 46 kts 37°
2026-05-08 21:05 43.69009 10.40076 7 ft 29 kts 37°
2026-05-08 21:06 43.69165 10.40236 7 ft 27 kts 37°
2026-05-08 21:06 43.69270 10.40293 10 ft 11 kts 334°
2026-05-08 21:06 43.69322 10.40213 10 ft 11 kts 307°
2026-05-08 21:06 43.69375 10.40121 10 ft 13 kts 314°
2026-05-08 21:07 43.69462 10.40090 12 ft 13 kts 351°
2026-05-08 21:07 43.69533 10.40076 10 ft 8 kts 352°
2026-05-08 21:07 43.69564 10.40070 10 ft 1 kts 353°
2026-05-08 21:07 43.69599 10.40064 10 ft 9 kts 352°
2026-05-08 21:08 43.69667 10.40057 10 ft 11 kts 13°
2026-05-08 21:08 43.69703 10.40122 10 ft 7 kts 62°
2026-05-08 21:08 43.69731 10.40145 10 ft 2 kts 14°
2026-05-08 21:08 43.69753 10.40150 10 ft 2 kts
2026-05-08 21:09 43.69762 10.40152 10 ft 0 kts